Temperature
14 14 14 14 14 14 14 14 14 14 14 14 14 14 14 14 14 14 14 14 14 14 13 14 14 14 14 14 14 14 14 14 14 14 14 14 14 14 14 14 14 14 14
15 14 14 14 13 13 13 13 13 13 13 13 14 14 14 14 14 14 13 13 13 13 13 13 13 13 13 13 13 13 13 13 13 13 14 14 14 13 13 13 13 13 13
14 14 14 13 13 13 13 13 13 13 13 13 13 13 13 14 14 14 13 13 13 13 13 13 13 13 13 13 13 13 13 13 13 13 13 13 13 13 13 13 13 13 13
14 14 14 13 13 13 13 13 13 13 13 13 13 13 13 13 13 13 13 13 13 13 13 13 13 13 13 13 13 13 13 13 13 13 13 13 13 13 13 13 13 13 13
13 13 13 13 13 13 13 13 13 13 13 13 13 13 13 13 13 13 13 13 13 13 13 13 13 13 13 13 13 13 13 13 13 13 13 13 13 13 12 12 13 13 13
13 13 13 13 13 13 13 13 13 13 13 13 13 13 13 13 13 13 13 13 13 13 13 13 13 13 13 13 13 13 13 13 13 13 13 13 12 12 12 12 12 12 13
13 13 13 13 12 12 12 12 12 12 12 12 13 13 13 12 12 13 13 13 13 13 13 13 13 13 13 13 12 12 12 12 12 13 13 12 12 12 12 12 12 12 12
12 12 12 12 12 12 12 12 12 12 12 12 12 12 12 12 12 12 12 12 13 12 13 13 13 13 13 12 12 12 12 12 12 12 12 12 12 12 12 12 12 12 12
12 12 12 12 12 12 12 12 12 12 12 12 12 12 12 12 12 12 12 12 12 12 12 12 12 12 12 12 12 12 12 12 12 12 12 12 11 11 11 11 11 11 11
12 12 12 12 12 12 12 12 12 12 12 12 12 12 12 12 11 12 12 12 12 12 12 12 12 12 12 12 12 12 12 12 12 12 11 11 11 11 11 11 11 11 11
11 11 11 11 11 11 11 11 11 11 11 11 11 11 11 11 11 11 11 11 11 12 12 12 12 12 12 12 12 12 12 12 11 11 11 11 11 11 11 11 10 10 10
12 11 11 11 11 11 11 11 11 11 11 11 11 11 11 11 11 11 11 11 11 11 11 11 11 11 11 11 11 11 11 11 11 11 11 11 11 10 10 10 10 10 10
11 11 11 11 11 11 11 11 11 11 11 11 10 10 10 10 10 11 11 11 11 11 11 11 11 11 11 11 11 11 11 11 11 11 11 10 10 10 10 10 10 10 10
11 11 11 11 10 10 10 10 10 10 10 10 10 10 10 10 10 10 10 10 10 10 10 10 11 11 10 10 10 10 10 10 10 10 10 10 10 9 9 9 9 9 9
11 10 10 10 10 10 10 10 10 10 10 10 10 9 9 9 9 10 10 10 10 10 10 10 10 10 10 10 10 10 10 10 10 10 10 10 9 9 9 9 9 9 9
10 10 10 10 10 10 10 10 9 9 9 9 9 9 9 9 9 9 9 9 9 9 9 9 10 10 10 9 9 9 9 9 10 9 9 9 9 9 9 9 8 8 8
10 10 10 10 9 9 9 9 9 9 9 9 9 9 9 8 8 8 9 9 9 9 9 9 9 9 9 9 9 9 9 9 9 9 9 9 9 9 9 8 8 8 8
10 10 9 9 9 9 9 9 9 9 8 8 8 8 8 8 8 8 8 8 8 8 8 8 8 8 8 8 8 8 8 8 8 8 8 8 8 8 8 8 8 8 8
9 9 9 9 9 9 8 8 8 8 8 8 8 8 8 8 8 8 8 8 8 8 8 8 8 8 8 8 8 8 8 8 8 8 8 8 8 8 8 8 8 8 8
9 9 9 8 8 8 8 8 8 8 8 7 7 7 7 7 7 7 7 7 7 7 7 7 7 7 7 7 7 7 7 7 7 7 7 7 7 7 7 7 7 8 7
8 8 8 8 8 8 8 7 7 8 7 7 7 7 7 7 7 7 7 7 7 7 7 7 7 7 7 7 7 7 7 7 7 7 7 7 7 7 7 7 7 7 7
8 8 8 7 7 7 7 7 7 7 7 7 7 7 7 6 6 6 6 6 6 6 6 6 6 6 6 6 6 6 5 6 6 6 6 6 6 6 6 6 6 7 7
7 7 7 7 7 7 7 6 6 6 6 6 6 6 6 6 6 6 6 6 6 6 6 6 6 6 6 6 5 5 5 5 5 5 6 6 6 6 6 6 6 6 6
7 7 7 7 7 6 6 6 6 6 6 6 6 6 6 6 6 5 5 5 5 5 5 5 5 5 5 5 5 5 5 5 4 4 5 5 5 5 5 5 5 5 5
7 7 6 6 6 6 6 6 6 6 5 5 5 5 5 5 5 5 5 5 5 5 4 4 4 4 4 4 4 4 4 4 4 4 4 4 5 5 4 4 4 5 5
6 6 6 6 6 6 6 6 5 5 5 5 5 5 5 5 5 5 4 4 4 4 4 4 4 4 4 4 4 4 4 3 3 3 3 3 4 4 4 4 4 4 4
Wind_Speed
3 5 9 9 9 9 9 9 8 8 8 9 9 9 9 9 9 9 8 8 8 8 9 9 8 8 9 9 9 9 9 9 9 9 9 9 8 8 9 9 9 8 8
5 7 10 10 10 9 9 8 8 8 7 8 8 8 8 8 8 8 8 7 7 8 8 8 8 8 8 8 8 8 8 8 8 8 8 8 8 7 7 7 7 6 7
5 7 10 11 10 10 9 8 8 7 7 7 7 7 7 7 7 7 7 7 7 7 7 7 7 8 8 8 8 8 8 7 8 8 8 7 6 6 6 6 6 6 6
6 8 9 10 10 9 9 8 7 7 7 6 6 7 7 7 7 7 7 7 7 7 7 7 7 7 7 7 7 7 7 7 7 8 7 6 5 5 5 5 5 6 6
6 7 8 10 9 9 9 8 7 6 6 6 6 6 6 6 6 6 6 6 6 6 6 7 6 6 6 6 6 6 6 7 7 7 7 6 5 4 4 4 4 5 5
5 6 8 10 9 8 8 7 6 6 5 5 5 5 5 5 5 5 5 6 6 6 6 6 5 5 5 5 5 5 5 6 7 7 6 5 4 4 4 4 4 5 5
5 5 6 9 9 8 7 7 6 6 5 5 4 4 4 5 5 5 5 5 5 5 5 5 5 4 4 4 4 4 5 6 6 6 5 4 3 3 3 3 3 4 4
5 5 5 7 8 8 7 7 6 6 5 4 4 4 3 3 3 4 4 4 4 4 4 4 4 4 4 4 4 4 4 5 5 5 5 4 3 3 3 3 3 4 4
5 5 4 4 5 6 6 6 5 5 4 4 3 3 3 3 2 2 3 3 3 3 4 4 4 4 3 3 4 4 4 5 5 4 4 4 3 3 3 3 3 3 3
3 3 3 4 4 4 4 4 5 4 4 3 3 3 3 3 2 2 2 2 2 3 3 4 4 4 3 3 4 4 4 5 5 4 3 3 4 3 3 3 3 3 3
2 2 2 3 3 3 3 3 4 4 3 3 2 3 3 4 3 3 2 2 2 3 3 4 4 5 4 4 4 4 4 4 3 3 3 3 4 4 3 3 3 4 4
3 2 1 2 2 3 3 3 3 3 3 3 2 3 3 4 4 3 3 3 3 3 3 4 4 5 4 4 3 4 4 3 3 3 3 4 4 4 4 4 4 4 5
4 3 2 2 2 3 2 2 2 3 3 2 2 3 3 3 3 3 3 3 3 3 3 3 4 4 3 3 2 3 2 2 2 2 3 4 4 4 4 4 4 5 5
3 4 3 2 2 2 3 2 2 2 2 1 2 2 2 2 2 2 2 2 2 2 2 2 3 3 3 2 2 2 2 2 2 2 3 3 4 4 4 5 5 5 6
4 3 3 3 3 3 2 2 1 1 1 1 2 2 2 2 1 1 1 1 2 1 1 1 2 2 2 2 2 1 1 1 1 2 3 3 3 4 4 5 6 6 6
4 4 3 3 3 3 2 2 2 2 1 1 1 2 2 2 2 1 0 0 1 1 1 1 1 1 1 1 2 2 1 1 1 1 2 3 3 4 4 5 6 7 7
4 4 3 3 2 3 3 3 2 2 2 1 1 1 2 2 2 1 1 1 1 1 0 1 1 1 1 1 2 2 1 1 1 1 2 2 2 3 4 5 6 7 8
3 4 4 3 3 3 2 2 2 2 2 2 1 1 2 3 3 2 1 1 2 1 0 0 0 1 1 1 2 2 1 1 1 1 1 1 1 2 3 5 6 7 8
4 4 4 3 3 3 2 2 2 2 2 1 1 1 2 2 3 2 1 1 1 0 0 1 1 1 1 2 2 2 2 2 2 1 1 1 1 1 2 4 5 6 8
2 3 3 3 3 3 2 1 1 1 1 1 1 1 2 2 2 2 1 1 1 1 0 0 1 1 1 2 2 2 2 3 2 1 2 1 1 1 2 2 3 5 6
2 2 3 3 3 3 2 2 1 2 2 1 1 2 2 2 2 2 2 1 1 1 1 1 1 1 1 1 1 2 3 2 2 1 1 1 1 1 2 2 3 3 4
4 4 4 4 4 4 3 2 1 1 1 2 1 2 2 2 2 3 3 2 2 1 1 1 0 1 1 0 0 0 2 3 2 1 1 1 1 1 1 3 3 3 3
4 4 4 4 4 4 3 2 1 1 1 0 1 1 2 2 2 2 3 2 2 2 2 2 2 2 1 1 1 1 1 3 3 2 1 1 1 1 2 2 3 4 4
5 4 4 4 4 3 3 3 3 2 3 3 2 2 2 2 2 2 3 2 2 2 2 3 2 2 2 2 1 1 2 2 1 2 2 1 2 2 2 3 3 4 5
4 3 3 3 3 3 3 4 4 3 3 1 1 2 2 2 2 2 2 2 2 2 2 3 2 3 2 3 2 1 1 1 1 2 3 3 3 2 2 3 3 3 4
3 3 3 3 3 3 4 4 5 5 3 2 2 2 2 2 2 2 2 2 2 2 3 3 3 3 3 3 2 2 2 1 2 2 3 3 4 4 3 3 3 3 3
Wind_Direction
178 175 160 145 137 128 123 117 112 105 101 96 91 89 86 82 78 74 73 73 75 74 71 73 73 73 73 70 69 68 65 66 67 66 63 61 65 67 67 62 59 63 68
161 164 155 147 142 135 130 124 116 108 104 99 93 91 87 83 78 74 72 70 72 72 72 72 73 74 72 70 68 66 65 63 63 64 59 56 58 64 68 64 60 63 67
137 147 149 145 142 138 134 128 120 112 105 98 94 91 87 84 78 74 72 68 67 68 70 71 72 71 70 68 67 65 63 59 59 58 50 43 42 56 59 60 57 53 58
130 134 141 143 141 138 133 126 122 115 107 100 95 90 86 83 78 73 71 67 64 66 66 65 70 69 69 68 67 68 64 60 59 52 42 30 26 49 54 52 49 45 49
120 128 140 142 141 138 135 129 125 118 111 103 98 90 87 84 77 73 69 67 64 65 64 63 67 68 67 68 69 70 67 60 56 50 37 26 21 39 51 49 48 45 45
115 122 141 140 139 136 134 130 126 119 115 106 99 89 87 84 77 73 68 67 62 61 61 57 59 64 62 63 66 70 66 58 55 48 33 26 19 29 44 45 50 46 41
113 110 135 139 138 135 133 131 129 122 113 103 97 89 86 87 78 72 67 64 60 59 54 49 50 59 59 55 59 65 63 54 56 45 29 19 14 13 26 37 41 38 31
119 105 118 143 140 137 132 131 128 120 110 102 93 82 78 75 80 77 68 59 54 52 45 42 45 57 58 51 50 57 58 55 52 36 21 12 3 8 20 27 28 26 25
109 106 96 108 130 140 136 133 129 122 111 98 86 73 65 57 71 77 64 57 54 51 46 42 37 50 56 47 44 49 54 53 50 31 11 357 347 354 5 14 11 11 9
98 102 101 94 99 105 125 139 134 124 114 94 78 70 58 43 42 54 49 47 49 50 48 41 35 36 44 44 40 44 52 52 43 22 2 341 333 332 344 349 345 348 348
117 103 106 100 93 95 107 128 128 128 120 95 74 78 60 45 35 35 42 48 46 50 47 38 31 30 39 44 42 39 49 52 40 17 353 332 328 328 326 330 331 330 332
185 179 151 132 111 96 101 106 104 108 105 95 82 79 67 52 47 49 49 44 40 44 44 35 31 31 42 46 39 35 43 42 39 6 347 336 328 323 325 320 320 322 322
194 186 183 170 141 124 110 105 100 97 96 98 99 94 83 65 53 49 44 31 28 36 41 32 34 36 39 40 39 40 40 40 22 353 335 336 325 321 324 322 318 316 315
186 200 193 174 158 150 137 132 128 109 101 105 122 119 106 80 59 47 40 29 33 36 37 34 36 29 25 17 29 30 25 26 5 345 328 330 320 311 316 317 316 309 305
189 199 197 181 177 166 151 148 140 159 161 159 152 152 143 129 134 68 51 33 16 18 27 16 22 18 9 1 1 10 352 354 355 344 330 326 326 314 310 312 310 310 303
197 200 194 187 182 163 166 178 183 179 162 144 153 176 170 161 160 173 164 11 340 343 345 353 336 327 325 344 332 332 312 308 332 332 330 327 331 322 313 310 309 307 306
200 195 189 189 167 165 178 186 183 180 163 165 195 190 188 184 176 176 197 243 281 288 345 18 358 1 323 330 307 305 301 290 297 313 329 338 334 323 317 313 307 305 305
192 189 193 190 182 185 185 193 184 172 166 186 216 215 206 201 189 175 203 241 256 247 151 297 312 332 322 316 301 292 293 297 289 290 316 327 335 328 318 311 311 307 305
196 190 188 190 190 199 197 192 187 172 176 192 207 230 229 216 200 180 203 248 233 208 218 249 320 277 292 303 296 291 290 278 276 287 291 296 304 314 319 314 313 311 308
195 184 186 193 192 193 179 156 152 158 197 196 215 233 238 224 209 196 197 228 219 193 231 242 270 302 269 277 307 314 308 291 284 273 273 284 295 303 326 321 322 318 312
179 180 191 194 191 170 167 176 195 224 233 228 232 238 238 235 214 200 214 206 217 207 230 234 249 299 309 295 326 321 314 289 274 268 266 259 281 316 343 325 320 324 320
198 199 197 201 197 191 194 193 198 201 219 226 239 248 244 237 229 211 204 208 219 212 234 251 241 222 280 314 198 330 319 315 297 284 271 251 271 324 333 326 327 321 317
209 209 211 208 201 198 185 147 91 72 50 95 266 251 252 237 230 226 218 205 210 206 221 238 230 195 223 255 239 187 205 249 296 292 265 266 274 283 298 320 318 311 308
222 215 209 207 200 194 175 170 170 187 216 226 234 238 260 242 230 227 219 209 215 217 219 231 229 220 205 232 257 254 232 215 218 296 297 287 288 283 288 307 304 300 304
225 213 209 201 199 193 185 183 185 204 221 226 230 223 243 258 241 231 225 217 222 229 228 227 227 223 218 216 215 227 247 270 228 230 277 298 302 279 284 286 286 292 301
224 210 202 198 206 201 193 192 195 206 212 211 222 222 240 258 255 248 242 233 233 234 235 232 225 221 221 219 217 215 212 222 235 229 250 277 288 291 290 280 272 274 295
Height
1503 1505 1507 1509 1510 1512 1513 1513 1514 1515 1516 1517 1517 1518 1518 1518 1519 1519 1520 1520 1520 1521 1521 1521 1522 1522 1522 1522 1522 1522 1522 1522 1522 1522 1522 1523 1523 1523 1523 1524 1524 1524 1524
1502 1505 1507 1508 1510 1511 1512 1513 1514 1515 1516 1517 1517 1518 1518 1518 1519 1519 1520 1520 1520 1521 1521 1522 1522 1522 1522 1522 1522 1522 1522 1522 1522 1522 1522 1523 1523 1523 1523 1524 1524 1524 1524
1502 1504 1506 1508 1509 1511 1512 1513 1514 1515 1516 1517 1517 1518 1518 1518 1519 1519 1520 1520 1520 1520 1521 1521 1521 1522 1522 1522 1522 1522 1522 1522 1522 1522 1522 1522 1523 1523 1523 1523 1524 1524 1524
1502 1504 1506 1507 1509 1510 1512 1513 1514 1515 1516 1516 1517 1517 1518 1518 1518 1519 1519 1519 1520 1520 1520 1521 1521 1521 1521 1521 1521 1522 1522 1522 1522 1522 1522 1522 1522 1523 1523 1523 1523 1524 1524
1502 1504 1506 1507 1509 1510 1511 1512 1514 1515 1515 1516 1517 1517 1517 1518 1518 1518 1518 1519 1519 1519 1520 1520 1520 1520 1521 1521 1521 1521 1521 1521 1521 1521 1522 1522 1522 1522 1522 1523 1523 1523 1523
1502 1504 1505 1507 1508 1510 1511 1512 1513 1514 1515 1516 1516 1516 1517 1517 1517 1517 1517 1518 1518 1519 1519 1519 1519 1520 1520 1520 1520 1520 1521 1521 1521 1521 1521 1521 1522 1522 1522 1522 1522 1522 1522
1502 1504 1505 1507 1508 1509 1510 1511 1512 1513 1514 1514 1515 1515 1516 1516 1516 1516 1516 1517 1517 1518 1518 1518 1518 1519 1519 1519 1519 1519 1520 1520 1520 1520 1520 1520 1521 1521 1522 1521 1521 1522 1522
1502 1504 1505 1506 1508 1509 1509 1510 1511 1512 1513 1513 1514 1514 1514 1514 1515 1515 1515 1516 1516 1516 1517 1517 1517 1517 1518 1518 1518 1518 1518 1519 1519 1519 1519 1520 1520 1520 1520 1520 1520 1520 1520
1502 1503 1505 1506 1507 1508 1509 1510 1510 1511 1512 1512 1513 1513 1513 1513 1513 1514 1514 1514 1515 1515 1515 1515 1516 1516 1516 1517 1517 1517 1517 1517 1518 1518 1518 1518 1518 1519 1519 1519 1519 1519 1519
1501 1503 1504 1505 1506 1507 1508 1509 1509 1510 1510 1511 1511 1512 1512 1512 1512 1512 1513 1513 1513 1513 1513 1514 1514 1514 1515 1515 1515 1515 1515 1515 1516 1516 1516 1517 1517 1517 1517 1517 1517 1517 1517
1500 1501 1502 1504 1505 1506 1507 1507 1508 1509 1509 1509 1510 1510 1510 1510 1511 1511 1511 1511 1511 1512 1512 1512 1512 1512 1513 1513 1513 1513 1513 1514 1514 1514 1514 1515 1515 1515 1515 1516 1516 1515 1515
1498 1499 1501 1502 1503 1504 1505 1506 1506 1507 1507 1508 1508 1508 1508 1509 1509 1509 1509 1509 1510 1510 1510 1510 1510 1510 1511 1511 1511 1512 1511 1511 1512 1512 1512 1513 1513 1513 1513 1513 1513 1513 1513
1497 1498 1499 1500 1501 1502 1503 1504 1504 1505 1505 1506 1506 1506 1506 1507 1507 1507 1508 1508 1508 1508 1508 1508 1508 1508 1508 1509 1509 1509 1509 1509 1509 1509 1510 1510 1511 1511 1511 1511 1511 1511 1511
1495 1496 1497 1498 1499 1500 1501 1502 1502 1503 1503 1503 1504 1504 1504 1504 1505 1505 1506 1506 1506 1506 1506 1506 1506 1506 1506 1506 1506 1506 1507 1507 1507 1507 1507 1507 1508 1508 1508 1508 1508 1508 1508
1493 1494 1495 1495 1496 1497 1498 1499 1500 1500 1500 1501 1501 1501 1501 1502 1502 1503 1503 1503 1504 1504 1504 1504 1504 1504 1503 1503 1504 1504 1504 1504 1504 1504 1504 1504 1505 1505 1505 1505 1505 1505 1504
1490 1491 1492 1493 1494 1495 1495 1496 1497 1497 1498 1498 1498 1499 1499 1499 1500 1500 1501 1501 1501 1501 1501 1501 1501 1501 1500 1500 1500 1500 1500 1501 1500 1501 1501 1501 1501 1501 1502 1502 1502 1501 1501
1488 1489 1490 1490 1491 1492 1493 1493 1494 1494 1495 1495 1495 1496 1496 1497 1497 1497 1498 1498 1498 1498 1498 1498 1498 1498 1498 1497 1497 1497 1497 1497 1497 1497 1497 1497 1498 1498 1498 1498 1498 1498 1498
1485 1486 1487 1488 1488 1489 1490 1491 1491 1491 1492 1492 1493 1493 1493 1494 1494 1494 1495 1495 1495 1495 1495 1495 1495 1495 1495 1494 1494 1494 1494 1494 1494 1494 1494 1494 1494 1494 1494 1494 1494 1494 1494
1482 1483 1484 1485 1485 1486 1487 1488 1488 1489 1489 1489 1490 1490 1490 1491 1491 1491 1491 1491 1492 1492 1492 1492 1492 1492 1491 1491 1491 1491 1491 1491 1491 1491 1491 1491 1491 1490 1491 1491 1490 1490 1490
1479 1480 1481 1481 1482 1483 1484 1484 1485 1485 1486 1486 1486 1487 1487 1487 1488 1488 1488 1488 1488 1488 1489 1489 1489 1489 1489 1488 1488 1487 1487 1487 1487 1487 1487 1487 1487 1487 1487 1487 1487 1486 1486
1475 1476 1477 1478 1479 1479 1480 1480 1481 1481 1482 1483 1483 1484 1484 1484 1484 1484 1484 1484 1484 1484 1485 1485 1485 1485 1485 1485 1485 1483 1483 1483 1483 1483 1484 1484 1484 1484 1483 1484 1483 1483 1482
1472 1473 1474 1474 1475 1476 1477 1478 1478 1478 1479 1479 1480 1480 1480 1481 1481 1481 1480 1480 1481 1481 1481 1481 1481 1481 1481 1482 1482 1481 1480 1480 1479 1479 1480 1480 1480 1480 1480 1480 1480 1479 1478
1468 1469 1470 1471 1471 1472 1473 1474 1474 1475 1475 1475 1475 1476 1476 1477 1477 1477 1477 1477 1477 1477 1477 1477 1478 1478 1478 1478 1479 1479 1478 1476 1475 1475 1475 1476 1477 1477 1477 1476 1476 1475 1475
1464 1466 1467 1467 1468 1469 1470 1470 1470 1470 1470 1471 1472 1472 1473 1473 1473 1473 1473 1473 1473 1473 1473 1473 1473 1474 1474 1474 1475 1475 1476 1475 1474 1472 1472 1473 1473 1473 1473 1472 1472 1472 1471
1462 1462 1463 1464 1465 1465 1466 1466 1467 1467 1467 1468 1468 1468 1469 1469 1469 1469 1469 1469 1469 1469 1469 1469 1469 1470 1470 1470 1470 1471 1471 1471 1471 1471 1468 1468 1469 1469 1469 1469 1469 1468 1468
1459 1459 1460 1460 1461 1462 1462 1462 1463 1463 1464 1464 1464 1464 1465 1465 1465 1465 1465 1465 1465 1465 1466 1465 1466 1466 1466 1466 1467 1467 1467 1467 1467 1467 1466 1465 1464 1465 1465 1465 1465 1464 1464